Location: Deerlick Astronomy Village
(33.5614°N, 82.7631°W)
Time: 19:03:17
(UTC-05:00)

CAS-4A - Pass Details

Date: 05 November 2020
Orbit: 528 x 543 km, 43.0° (Epoch: 30 November)

Event Time Altitude Azimuth Distance (km) Brightness Sun altitude
Exits shadow 04:44:17 36° 126° (SE) 853 ? -27.3°
Drops below altitude 10° 04:46:45 10° 123° (ESE) 1,767 ? -26.8°
Sets 04:48:58 0° 123° (ESE) 2,652 ? -26.4°
